Theta_e
314 315 316 316 316 316 315 314 314 313 313 313 313 314 315 318 321 322 330 336 336 338 338 337 339 340 340 340 343 343 341 344 348 350 351 347 348 346 352 353 354 354 352 352 352
314 314 315 316 317 316 315 314 314 314 313 313 313 314 315 317 320 322 334 337 336 336 337 338 338 340 339 341 342 342 342 344 344 344 348 349 349 347 353 353 355 353 352 352 352
315 314 314 316 317 316 316 315 314 314 313 313 313 314 315 316 319 325 331 337 337 336 337 338 338 338 339 340 341 342 344 343 343 340 340 346 345 346 354 355 355 354 353 352 352
316 315 315 315 316 317 316 315 314 314 313 313 313 314 315 316 334 333 332 333 335 339 338 338 339 339 339 337 339 339 341 341 343 341 337 345 346 348 353 355 354 352 352 353 351
316 316 315 315 316 317 316 315 314 314 313 313 313 314 315 322 325 330 331 331 333 340 338 338 339 340 338 337 338 337 341 341 343 344 343 346 347 349 353 353 352 351 351 352 351
316 316 316 315 315 316 316 315 314 314 314 313 313 313 314 323 329 330 330 329 335 340 338 339 340 340 339 338 338 338 340 340 341 344 347 348 348 349 351 351 351 351 350 350 350
318 316 315 315 315 316 316 315 314 314 314 313 313 313 313 321 327 328 329 332 339 338 338 340 340 339 339 337 337 338 340 340 340 344 348 347 350 351 349 350 350 350 349 349 350
317 318 316 315 315 316 316 315 314 314 314 313 313 313 314 320 324 326 328 331 336 340 340 341 339 338 339 339 336 336 338 340 345 344 343 342 349 349 349 350 350 349 348 346 350
316 317 317 315 315 316 316 315 314 314 314 313 314 323 322 322 323 325 325 330 335 337 338 338 338 338 338 337 336 336 338 342 343 343 343 344 349 348 348 349 348 348 347 346 346
315 316 318 316 315 316 316 315 314 314 314 313 315 323 322 323 323 323 324 328 332 336 336 337 337 334 335 336 339 341 340 340 341 343 344 345 345 347 348 348 348 347 348 348 347
315 315 317 317 315 316 316 315 324 322 316 317 318 320 320 323 324 323 323 328 332 334 335 338 334 335 336 337 339 339 341 341 341 343 344 346 346 348 347 348 348 347 348 348 348
317 315 316 318 316 316 316 315 324 322 321 322 324 322 322 322 324 323 325 329 332 333 334 335 335 335 337 339 340 339 340 341 339 335 334 345 349 348 347 347 347 348 348 349 349
319 316 316 318 316 319 320 316 319 321 321 322 323 324 322 323 325 324 326 329 330 331 332 334 335 336 336 339 339 335 337 338 339 337 335 337 347 349 347 347 347 348 348 348 348
320 317 315 318 319 325 323 322 321 320 320 323 321 324 322 322 323 326 327 328 329 328 329 332 335 336 337 340 338 334 338 339 340 334 335 334 338 350 346 344 346 346 348 348 349
321 319 315 316 317 320 323 321 322 323 325 326 322 324 322 321 323 322 324 327 327 328 328 329 332 335 336 338 336 338 338 339 339 332 332 333 348 351 339 342 339 338 345 350 345
321 320 316 316 318 322 320 321 322 324 327 326 325 321 320 321 321 323 324 326 328 329 328 328 332 332 335 339 335 338 336 337 334 332 331 332 347 350 343 340 337 336 345 345 341
321 321 316 315 318 324 323 321 324 325 326 324 323 322 320 319 320 321 323 326 327 327 327 328 329 329 334 337 337 337 334 333 335 335 336 338 346 346 344 340 341 342 344 344 345
321 320 316 317 318 323 322 322 327 326 323 325 324 322 320 321 320 322 322 325 326 326 326 327 329 329 331 336 336 336 333 331 338 340 342 340 347 346 340 338 335 337 348 342 339
321 317 317 321 317 323 325 323 325 327 327 327 326 324 322 322 322 321 321 323 327 326 326 327 329 330 331 338 336 338 336 331 333 334 335 343 344 346 347 343 346 348 346 343 344
321 316 318 327 320 323 323 322 323 324 325 325 327 326 324 323 322 320 323 325 326 327 326 326 328 329 331 336 335 335 336 337 333 337 348 350 350 350 349 348 351 350 348 352 353
317 326 329 327 326 323 322 322 323 323 324 325 330 332 326 323 322 323 323 326 326 326 326 325 323 326 332 335 334 333 333 333 332 333 340 350 350 344 345 345 342 346 338 349 351
316 326 328 326 323 322 322 322 322 322 323 324 329 331 331 330 324 324 324 326 328 327 325 325 323 325 329 335 335 333 336 332 332 334 338 341 349 339 340 342 342 346 347 352 349
318 325 328 325 325 324 323 322 322 322 323 325 329 330 330 329 330 326 326 329 330 327 325 325 324 324 330 335 336 333 334 332 330 335 337 342 351 342 343 341 339 337 338 351 341
319 330 329 326 325 325 324 324 323 323 323 325 327 329 329 329 329 330 327 329 330 329 330 329 326 335 338 338 338 337 334 334 332 335 340 347 347 341 342 345 340 340 337 350 346
319 326 332 332 327 326 325 324 325 326 323 324 328 329 329 328 329 330 330 328 329 330 330 329 330 341 337 339 339 338 335 336 335 335 339 342 340 341 337 338 339 339 341 349 344
318 326 326 328 331 333 325 323 325 326 326 325 328 329 328 327 328 330 329 330 329 328 327 328 335 341 339 338 338 339 335 335 337 339 340 340 343 344 345 344 347 346 349 345 343
320 323 324 329 333 333 325 323 324 324 328 325 327 329 329 330 329 329 330 329 327 327 325 326 334 340 341 337 337 337 335 335 340 341 339 343 342 341 346 350 350 349 345 343 341
Wind_Speed
9 10 10 10 10 10 9 9 9 9 10 9 9 8 9 10 10 12 13 9 11 10 15 18 19 27 29 25 15 12 5 7 11 8 5 13 13 17 22 26 8 8 34 32 28
11 10 11 11 11 11 10 9 8 8 8 9 9 8 8 11 12 16 13 12 13 14 17 18 20 24 23 6 1 6 7 6 4 5 4 15 17 16 28 28 27 32 28 28 33
11 11 11 11 11 11 10 9 8 8 7 7 8 8 9 9 11 11 15 13 11 15 16 19 22 25 33 22 9 5 6 8 23 33 26 16 8 22 24 16 24 28 30 31 30
11 11 12 11 11 11 10 9 7 8 7 7 7 7 7 7 1 4 7 10 10 13 16 20 18 20 14 5 18 8 18 11 22 27 13 6 24 20 24 23 27 24 28 31 25
13 13 13 13 12 12 10 9 7 6 8 7 6 7 6 4 10 4 4 9 13 14 16 18 28 24 7 8 15 8 11 12 28 27 22 23 16 13 25 30 24 22 23 28 25
13 12 13 13 13 13 11 9 7 5 7 7 6 6 6 5 1 5 4 9 13 12 15 17 25 21 14 8 6 8 18 16 18 24 26 22 7 14 23 26 24 25 23 27 25
14 13 13 13 13 13 12 9 7 5 6 7 6 7 11 20 7 5 6 9 9 11 19 19 24 13 18 8 10 10 9 10 12 14 11 28 8 13 24 22 22 23 22 23 25
15 14 14 13 12 12 11 9 7 5 5 6 6 7 11 17 12 9 6 8 12 13 19 21 16 15 17 22 5 5 5 5 13 12 11 7 6 15 28 25 23 19 17 17 28
15 15 15 15 13 12 10 8 6 4 4 5 4 7 12 5 18 19 11 14 12 13 13 15 13 14 23 8 6 5 6 6 9 12 10 5 4 17 28 25 24 22 19 21 19
16 16 15 15 14 12 9 7 6 5 4 6 7 9 14 18 15 15 15 14 16 17 20 20 20 6 8 6 6 2 2 6 7 9 13 7 6 17 29 25 24 27 24 24 25
17 16 15 15 14 13 8 7 4 2 10 12 10 14 19 11 12 15 15 16 18 22 8 21 4 9 14 8 5 6 9 13 10 15 15 13 15 19 26 25 23 27 29 28 28
18 16 15 15 13 12 10 7 2 14 12 19 26 31 32 15 13 19 18 20 17 9 9 9 11 14 15 12 11 14 13 6 9 9 5 13 19 20 19 21 28 29 32 33 30
19 18 16 14 12 8 7 11 10 11 8 17 27 25 27 15 10 23 21 22 7 10 9 11 13 16 17 10 7 9 1 1 3 4 3 5 11 15 16 18 27 32 36 35 34
19 18 17 14 7 7 9 11 10 7 4 7 13 25 20 14 7 17 20 20 8 11 13 9 20 18 14 7 7 9 2 1 6 7 6 6 2 4 2 4 10 7 28 9 26
20 19 14 15 11 9 9 2 7 8 4 5 15 12 22 19 10 19 24 26 13 12 8 13 13 13 15 14 9 3 6 7 7 4 3 7 6 2 7 4 5 10 18 39 20
20 19 16 14 12 3 5 4 6 1 7 3 11 11 11 23 25 8 23 30 25 13 11 10 24 12 15 15 9 3 1 4 5 2 3 7 5 3 3 7 4 11 32 41 47
20 18 20 15 8 2 4 7 1 4 10 9 12 15 13 9 16 14 13 15 13 6 10 10 14 12 15 7 3 5 3 3 4 3 6 3 8 7 7 7 8 15 28 40 39
21 18 17 15 10 8 1 1 5 12 14 5 6 13 13 10 11 13 10 11 10 11 6 7 10 9 10 10 7 8 8 5 5 4 4 4 6 1 5 13 10 7 36 42 36
21 16 15 4 13 12 3 5 6 7 7 11 10 12 11 13 9 12 11 12 14 12 10 7 9 10 12 6 6 4 2 9 4 6 1 3 3 3 9 2 10 15 31 36 39
23 20 16 7 10 13 4 8 9 14 21 22 20 7 9 14 14 11 10 14 11 11 13 13 4 11 12 8 5 7 5 3 4 1 4 3 3 4 4 1 4 14 26 25 13
15 8 6 18 13 9 6 6 10 27 27 20 18 8 5 11 11 10 12 8 14 16 13 11 4 19 8 6 8 3 6 5 1 3 5 4 5 5 2 4 7 20 5 18 39
6 4 14 13 8 7 9 7 13 25 33 25 11 8 13 8 10 15 12 13 25 20 13 14 4 7 12 11 13 10 10 8 5 9 1 5 1 7 6 7 19 13 13 12 25
5 11 12 16 4 8 11 18 23 20 21 21 7 8 14 9 6 10 12 15 19 19 10 9 5 6 9 9 12 10 7 5 5 5 3 3 5 3 15 16 23 11 20 2 23
5 3 11 19 19 13 12 12 14 22 19 23 15 8 8 11 8 7 12 7 12 13 18 13 4 4 4 4 5 4 8 7 8 5 1 2 8 9 14 14 24 28 24 11 32
3 4 7 3 10 13 15 14 18 16 16 22 9 8 10 10 13 10 5 7 5 8 2 3 3 3 11 9 5 7 6 10 8 5 4 6 6 8 12 7 33 32 26 27 31
5 7 12 19 23 17 14 15 18 20 14 13 9 11 14 12 13 14 9 6 7 4 8 2 2 3 3 8 14 16 4 3 11 12 10 12 5 5 5 9 28 34 27 27 27
9 11 10 12 9 11 7 14 17 19 26 22 18 16 18 16 25 28 26 11 9 9 8 7 5 4 3 6 7 5 9 5 12 15 20 8 9 8 2 17 24 26 28 23 18
Wind_Direction
356 352 347 339 337 332 320 314 307 308 307 310 305 299 292 285 273 261 244 237 275 285 291 302 317 316 299 273 198 134 54 45 106 106 145 132 88 76 68 133 125 138 138 140 140
354 351 347 341 339 335 328 316 304 302 303 307 305 303 297 297 289 254 206 218 251 269 283 301 307 316 321 148 148 102 98 128 199 92 147 121 118 122 92 100 103 114 126 139 145
352 349 346 342 338 336 331 321 307 297 298 302 302 301 302 304 309 260 218 235 252 267 272 285 291 297 293 276 122 147 134 147 81 68 26 108 135 123 117 113 124 135 148 152 156
352 348 346 342 339 336 331 320 304 294 296 298 298 298 289 297 135 323 222 231 252 257 270 290 298 300 300 103 105 86 114 117 110 107 162 80 86 79 104 122 131 142 153 161 166
353 348 344 341 339 336 331 322 309 291 289 292 296 291 283 273 246 268 271 240 245 247 263 282 285 299 16 122 121 147 119 126 128 131 137 102 93 103 116 128 138 148 159 171 175
352 346 342 339 336 335 331 322 308 286 279 287 294 289 279 256 172 278 284 223 230 244 264 277 284 327 314 333 134 130 146 159 131 144 123 106 139 122 128 137 154 165 171 178 173
347 346 341 337 333 331 327 320 308 283 271 279 290 286 260 227 168 157 298 239 232 236 262 287 309 328 321 305 129 178 182 154 156 132 126 128 105 130 143 149 163 179 184 179 181
342 342 337 334 331 328 323 315 306 280 266 275 285 298 261 233 250 232 206 246 233 250 263 283 313 315 304 297 163 242 138 172 132 120 166 112 177 150 156 165 176 184 168 156 166
339 338 335 331 329 326 318 309 300 276 257 262 286 300 269 249 235 224 220 240 238 244 255 271 288 292 294 301 318 254 195 197 169 155 146 142 157 163 165 176 176 178 156 160 164
336 334 331 329 326 323 315 300 288 271 247 252 230 296 252 228 227 236 219 222 236 234 235 248 262 250 272 263 245 223 315 258 218 173 160 142 186 171 173 180 178 168 170 171 173
336 331 326 326 324 320 312 293 338 234 221 217 227 226 290 232 211 224 209 216 236 256 218 240 230 237 257 257 285 238 187 225 239 174 163 175 175 175 182 186 179 170 177 178 178
337 330 323 322 320 314 304 265 257 333 293 276 258 254 268 273 257 209 200 208 223 242 216 250 239 248 262 273 188 235 217 252 166 154 151 147 174 182 188 191 183 174 180 182 185
336 330 323 320 318 312 302 285 301 334 296 281 242 244 243 255 243 203 206 206 204 239 243 223 244 242 249 258 253 269 223 156 185 145 257 176 188 178 200 188 187 183 187 188 185
332 330 328 321 310 303 308 341 330 313 299 256 197 230 233 232 277 216 210 226 229 217 243 234 243 257 261 234 248 252 106 35 223 142 211 189 128 7 328 123 161 167 196 205 157
328 326 328 318 295 274 333 358 325 283 288 189 176 191 191 203 208 222 222 215 227 237 188 247 246 242 259 252 245 199 45 262 286 226 351 295 88 236 349 359 279 261 96 129 115
321 320 314 307 286 309 266 326 315 290 250 160 135 147 169 207 236 242 213 216 230 246 259 234 246 240 242 262 228 238 70 286 308 20 341 298 101 268 224 209 279 264 119 130 147
313 312 300 282 265 293 274 280 247 237 309 131 165 170 193 188 225 232 213 196 209 213 254 271 251 260 256 227 255 62 28 315 334 348 227 19 62 234 226 238 220 119 127 143 161
310 308 290 270 238 202 322 272 249 256 243 298 196 163 192 197 221 238 202 199 203 234 215 239 273 245 264 226 190 178 188 176 234 201 229 113 146 210 210 246 320 324 157 152 154
313 310 291 256 208 188 231 230 222 233 305 317 305 173 188 220 194 217 228 202 201 215 226 213 249 264 240 193 211 240 283 229 274 310 49 81 81 46 50 152 286 291 159 177 178
319 316 272 195 178 172 221 240 253 273 301 308 302 173 178 206 212 193 212 196 213 221 228 256 309 240 256 197 239 167 230 320 321 243 62 348 49 178 52 280 359 28 20 137 155
325 318 116 167 193 194 227 243 267 267 274 278 298 338 266 189 214 218 222 189 200 223 218 242 197 276 247 181 181 221 248 255 199 174 146 147 280 268 53 10 61 25 92 310 95
301 261 176 179 176 210 236 244 259 279 285 287 278 307 303 306 211 216 225 207 201 206 213 216 203 240 238 190 210 207 206 194 140 290 40 109 275 342 153 115 56 347 300 13 122
313 278 192 187 224 236 244 248 260 271 275 283 267 268 289 300 334 205 223 227 216 194 209 204 245 265 293 243 235 212 209 232 122 82 28 85 121 25 118 122 145 219 233 172 154
307 271 198 205 240 266 273 273 258 255 270 279 288 282 322 310 294 286 210 238 232 179 206 179 219 162 224 109 8 326 185 112 116 92 141 84 134 190 201 152 173 198 195 186 143
236 274 356 256 227 238 262 280 282 277 257 271 296 300 295 298 309 302 220 221 201 157 20 122 181 135 86 85 68 327 341 107 104 147 105 173 122 226 217 152 186 191 206 158 124
287 346 327 293 279 279 238 246 265 280 263 255 240 261 265 268 268 282 296 196 210 154 171 149 228 135 118 131 112 256 271 238 125 130 114 135 152 268 311 103 153 178 147 122 127
318 311 334 284 298 294 228 232 247 263 273 228 236 224 243 250 254 268 276 222 222 159 172 175 159 157 221 192 207 221 229 205 117 138 145 165 211 164 177 105 119 130 127 124 109